Tiempo cada hora Ceara

Hoy, 25 Enero, Lunes

Tiempo Temperatura Precipitaciones Viento Presión Humedad
00:00 +26°C° 0.9 mm 1 mps 739 mmHg 88%
01:00 +25°C° 2 mm 1 mps 739 mmHg 89%
02:00 +25°C° 2 mm 1 mps 738 mmHg 90%
03:00 +25°C° 0 mm 1 mps 738 mmHg 90%
04:00 +25°C° 0.4 mm 1 mps 739 mmHg 90%
05:00 +25°C° 0.4 mm 1 mps 739 mmHg 91%
06:00 +25°C° 0.4 mm 1 mps 739 mmHg 91%
07:00 +26°C° 0 mm 1 mps 740 mmHg 85%
08:00 +28°C° 0 mm 2 mps 740 mmHg 78%
09:00 +29°C° 0 mm 2 mps 740 mmHg 72%
10:00 +31°C° 0.1 mm 3 mps 740 mmHg 64%
11:00 +33°C° 0.1 mm 3 mps 740 mmHg 56%
12:00 +35°C° 0.1 mm 3 mps 740 mmHg 48%
13:00 +35°C° 0 mm 3 mps 739 mmHg 48%
14:00 +35°C° 0 mm 3 mps 738 mmHg 47%
15:00 +35°C° 0 mm 3 mps 737 mmHg 47%
16:00 +34°C° 0 mm 2 mps 737 mmHg 51%
17:00 +32°C° 0 mm 2 mps 738 mmHg 54%
18:00 +31°C° 0 mm 1 mps 738 mmHg 58%
19:00 +30°C° 0 mm 1 mps 738 mmHg 62%
20:00 +29°C° 0 mm 2 mps 739 mmHg 66%
21:00 +28°C° 0 mm 2 mps 739 mmHg 70%
22:00 +27°C° 0 mm 2 mps 739 mmHg 76%
23:00 +27°C° 0 mm 2 mps 739 mmHg 82%

Mañana, 26 Enero, Martes

Tiempo Temperatura Precipitaciones Viento Presión Humedad
00:00 +26°C° 0 mm 2 mps 739 mmHg 87%
01:00 +26°C° 0.2 mm 2 mps 739 mmHg 88%
02:00 +26°C° 0.2 mm 2 mps 738 mmHg 89%
03:00 +26°C° 0.2 mm 2 mps 738 mmHg 90%
04:00 +25°C° 0.4 mm 2 mps 739 mmHg 90%
05:00 +25°C° 0.4 mm 2 mps 739 mmHg 91%
06:00 +25°C° 0.4 mm 2 mps 739 mmHg 91%
07:00 +26°C° 0 mm 2 mps 740 mmHg 83%
08:00 +27°C° 0 mm 3 mps 740 mmHg 74%
09:00 +29°C° 0 mm 3 mps 740 mmHg 65%
10:00 +31°C° 0 mm 3 mps 740 mmHg 57%
11:00 +34°C° 0 mm 3 mps 740 mmHg 50%
12:00 +36°C° 0 mm 3 mps 739 mmHg 42%
13:00 +36°C° 0 mm 3 mps 738 mmHg 41%
14:00 +36°C° 0 mm 3 mps 738 mmHg 40%
15:00 +36°C° 0 mm 3 mps 737 mmHg 40%
16:00 +35°C° 0 mm 2 mps 737 mmHg 43%
17:00 +32°C° 0 mm 1 mps 737 mmHg 47%
18:00 +31°C° 0 mm 1 mps 737 mmHg 51%
19:00 +30°C° 0 mm 1 mps 738 mmHg 54%
20:00 +29°C° 0 mm 2 mps 738 mmHg 58%
21:00 +28°C° 0 mm 2 mps 739 mmHg 62%
22:00 +27°C° 0 mm 2 mps 739 mmHg 69%
23:00 +27°C° 0 mm 2 mps 739 mmHg 76%

Pasado mañana, 27 Enero, Miércoles

Tiempo Temperatura Precipitaciones Viento Presión Humedad
00:00 +26°C° 0 mm 2 mps 739 mmHg 84%
01:00 +25°C° 0 mm 1 mps 739 mmHg 86%
02:00 +25°C° 0 mm 1 mps 739 mmHg 88%
03:00 +25°C° 0 mm 1 mps 739 mmHg 90%
04:00 +25°C° 0 mm 1 mps 739 mmHg 89%
05:00 +25°C° 0 mm 1 mps 739 mmHg 88%
06:00 +25°C° 0 mm 1 mps 740 mmHg 87%
07:00 +27°C° 0 mm 1 mps 740 mmHg 77%
08:00 +29°C° 0 mm 2 mps 740 mmHg 66%
09:00 +31°C° 0 mm 2 mps 740 mmHg 56%
10:00 +33°C° 0 mm 3 mps 740 mmHg 50%
11:00 +35°C° 0 mm 3 mps 740 mmHg 44%
12:00 +37°C° 0 mm 3 mps 739 mmHg 38%
13:00 +37°C° 0 mm 3 mps 738 mmHg 36%
14:00 +38°C° 0 mm 2 mps 737 mmHg 34%
15:00 +38°C° 0 mm 2 mps 736 mmHg 32%
16:00 +36°C° 0 mm 2 mps 737 mmHg 36%
17:00 +35°C° 0 mm 2 mps 737 mmHg 39%
18:00 +32°C° 0 mm 1 mps 737 mmHg 43%
19:00 +31°C° 0 mm 2 mps 737 mmHg 48%
20:00 +29°C° 0 mm 3 mps 738 mmHg 53%
21:00 +28°C° 0 mm 3 mps 739 mmHg 57%
22:00 +27°C° 0.1 mm 3 mps 739 mmHg 65%
23:00 +26°C° 0.1 mm 2 mps 739 mmHg 74%

28 Enero, Jueves

Tiempo Temperatura Precipitaciones Viento Presión Humedad
00:00 +25°C° 0.1 mm 1 mps 739 mmHg 82%
01:00 +25°C° 0.7 mm 1 mps 739 mmHg 84%
02:00 +25°C° 0.7 mm 1 mps 739 mmHg 87%
03:00 +25°C° 0.7 mm 1 mps 738 mmHg 89%
04:00 +25°C° 0 mm 1 mps 738 mmHg 89%
05:00 +25°C° 0 mm 1 mps 739 mmHg 89%
06:00 +25°C° 0 mm 1 mps 739 mmHg 89%
07:00 +27°C° 0 mm 1 mps 739 mmHg 79%
08:00 +29°C° 0 mm 2 mps 740 mmHg 68%
09:00 +31°C° 0 mm 2 mps 740 mmHg 58%
10:00 +32°C° 0 mm 2 mps 740 mmHg 51%
11:00 +35°C° 0 mm 3 mps 739 mmHg 44%
12:00 +37°C° 0 mm 3 mps 739 mmHg 37%
13:00 +37°C° 0 mm 3 mps 738 mmHg 36%
14:00 +37°C° 0 mm 3 mps 737 mmHg 35%
15:00 +37°C° 0 mm 3 mps 737 mmHg 35%
16:00 +36°C° 0 mm 2 mps 737 mmHg 39%
17:00 +34°C° 0 mm 2 mps 737 mmHg 44%
18:00 +32°C° 0 mm 2 mps 737 mmHg 49%
19:00 +30°C° 0 mm 2 mps 738 mmHg 58%
20:00 +29°C° 0 mm 3 mps 738 mmHg 67%
21:00 +27°C° 0 mm 3 mps 739 mmHg 75%
22:00 +27°C° 0.3 mm 2 mps 739 mmHg 78%
23:00 +26°C° 0.3 mm 2 mps 739 mmHg 80%

29 Enero, Viernes

Tiempo Temperatura Precipitaciones Viento Presión Humedad
00:00 +26°C° 0.3 mm 1 mps 739 mmHg 83%
01:00 +26°C° 0.6 mm 1 mps 739 mmHg 85%
02:00 +25°C° 0.6 mm 2 mps 738 mmHg 87%
03:00 +25°C° 0.6 mm 2 mps 738 mmHg 89%
04:00 +25°C° 0.4 mm 1 mps 739 mmHg 90%
05:00 +25°C° 0.4 mm 1 mps 739 mmHg 90%
06:00 +25°C° 0.4 mm 1 mps 739 mmHg 90%
07:00 +27°C° 0.4 mm 2 mps 740 mmHg 83%
08:00 +28°C° 0.4 mm 3 mps 740 mmHg 75%
09:00 +30°C° 0.4 mm 3 mps 741 mmHg 67%
10:00 +31°C° 0.6 mm 3 mps 741 mmHg 64%
11:00 +33°C° 0.6 mm 3 mps 740 mmHg 60%
12:00 +33°C° 0.6 mm 3 mps 740 mmHg 57%
13:00 +33°C° 1.7 mm 3 mps 739 mmHg 61%
14:00 +31°C° 1.7 mm 3 mps 739 mmHg 66%
15:00 +30°C° 1.7 mm 2 mps 738 mmHg 70%
16:00 +29°C° 1.4 mm 2 mps 738 mmHg 74%
17:00 +28°C° 1.4 mm 2 mps 738 mmHg 77%
18:00 +27°C° 1.4 mm 2 mps 739 mmHg 80%
19:00 +27°C° 2 mm 2 mps 739 mmHg 84%
20:00 +26°C° 2 mm 1 mps 740 mmHg 88%
21:00 +25°C° 2 mm 1 mps 740 mmHg 93%
22:00 +25°C° 1.5 mm 1 mps 740 mmHg 93%
23:00 +25°C° 1.5 mm 1 mps 740 mmHg 93%

30 Enero, Sábado

Tiempo Temperatura Precipitaciones Viento Presión Humedad
00:00 +25°C° 1.5 mm 1 mps 740 mmHg 93%
01:00 +25°C° 0.6 mm 1 mps 740 mmHg 93%
02:00 +25°C° 0.6 mm 1 mps 740 mmHg 94%
03:00 +25°C° 0.6 mm 1 mps 739 mmHg 94%
04:00 +25°C° 0.4 mm 1 mps 740 mmHg 94%
05:00 +25°C° 0.4 mm 1 mps 740 mmHg 94%
06:00 +25°C° 0.4 mm 1 mps 740 mmHg 94%
07:00 +26°C° 0.1 mm 2 mps 741 mmHg 87%
08:00 +27°C° 0.1 mm 2 mps 741 mmHg 80%
09:00 +29°C° 0.1 mm 3 mps 742 mmHg 73%
10:00 +30°C° 0.1 mm 3 mps 742 mmHg 67%
11:00 +31°C° 0.1 mm 3 mps 741 mmHg 61%
12:00 +33°C° 0.1 mm 3 mps 741 mmHg 55%
13:00 +34°C° 0.3 mm 3 mps 740 mmHg 54%
14:00 +34°C° 0.3 mm 3 mps 740 mmHg 53%
15:00 +34°C° 0.3 mm 3 mps 739 mmHg 52%
16:00 +32°C° 0.3 mm 2 mps 739 mmHg 58%
17:00 +30°C° 0.3 mm 2 mps 739 mmHg 65%
18:00 +29°C° 0.3 mm 1 mps 739 mmHg 71%
19:00 +28°C° 0.2 mm 1 mps 739 mmHg 75%
20:00 +27°C° 0.2 mm 1 mps 740 mmHg 79%
21:00 +26°C° 0.2 mm 1 mps 740 mmHg 83%
22:00 +25°C° 0.6 mm 1 mps 741 mmHg 87%
23:00 +25°C° 0.6 mm 1 mps 741 mmHg 91%
Mostrar más